Regional Weather Roundup
Issued by NWS

Home | Current Version | Previous Version | Text Only | Print | Product List | Glossary On
Versions: 1 2 3 4 5 6 7 8 9 10 11 12 13 14 15 16 17 18 19 20 21 22 23 24 25 26 27 28 29 30 31 32 33 34 35 36 37 38 39 40 41 42 43 44 45 46 47 48 49 50
000
ASUS43 KMPX 231310
RWRMN
WEATHER ROUNDUP FOR MINNESOTA
NATIONAL WEATHER SERVICE TWIN CITIES/CHANHASSEN MN
800 AM CDT THU MAY 23 2019


NOTE: "FAIR" INDICATES FEW OR NO CLOUDS BELOW 12,000 FEET WITH NO
SIGNIFICANT WEATHER AND/OR OBSTRUCTIONS TO VISIBILITY. N/A MEANS
CURRENT SKY AND/OR WEATHER CONDITIONS ARE NOT AVAILABLE.

MNZ060>063-068>070-231400-
   Twin Cities Metro

CITY           SKY/WX    TMP DP  RH WIND       PRES   REMARKS
TWIN CITIES    CLOUDY    54  45  71 W12G23    29.93R
ST PAUL        CLOUDY    54  44  69 W15G24    29.93R
CRYSTAL        CLOUDY    54  46  74 W18G25    29.92R
BLAINE         CLOUDY    54  46  76 W14G22    29.92R
LAKEVILLE      CLOUDY    54  48  82 W18       29.95R
EDEN PRAIRIE   CLOUDY    53  44  71 W15G26    29.93R
SOUTH ST PAUL  CLOUDY    54  44  70 W8G18     29.93R
LAKE ELMO        N/A     54  46  76 W10G21    29.93R
$$
MNZ001>005-007-008-013>017-022>024-027-028-231400-
   Northwest Minnesota

CITY           SKY/WX    TMP DP  RH WIND       PRES   REMARKS
BEMIDJI        CLOUDY    46  46  98 NW10      29.90R FOG
HALLOCK        MOSUNNY   50  46  87 N16       29.96S
ROSEAU         CLOUDY    46  43  87 N9        29.94R
WARROAD        CLOUDY    46  43  87 N13       29.94R
THIEF RVR FALL CLOUDY    47  43  86 N13       29.95R
CROOKSTON      CLOUDY    46  46 100 N15       29.95R
FOSSTON        CLOUDY    45  43  93 N12       29.94R
DETROIT LAKES  CLOUDY    46  45  93 NW13      29.95R
MOORHEAD       CLOUDY    46  45  93 N12       29.96S
PARK RAPIDS    CLOUDY    48  45  89 NW15      29.90R
MAHNOMEN       CLOUDY    46  45  94 N12       29.93R
$$
MNZ006-009>011-018-025>026-231400-
   North Central Minnesota

CITY           SKY/WX    TMP DP  RH WIND       PRES   REMARKS
BAUDETTE       CLOUDY    47  45  93 N12       29.91R FOG
FLAG ISLAND    CLOUDY    46  43  87 N15       29.92R
INTL FALLS     CLOUDY    48  47  96 N10       29.86R
WASKISH        CLOUDY    46  46 100 N7        29.89R
BIG FORK       CLOUDY    46  45  93 NW3       29.91R
LONGVILLE      CLOUDY    48  46  93 NW8       29.88R
GRAND RAPIDS   CLOUDY    47  45  93 NW10      29.87R
ORR            CLOUDY    45  43  93 NW8       29.81R
WALKER         CLOUDY    47  45  93 NW8G16    29.89R
$$
MNZ012-019>021-037-231400-
   Northeast Minnesota

CITY           SKY/WX    TMP DP  RH WIND       PRES   REMARKS
DULUTH         CLOUDY    52  49  89 NW10      29.79R FOG
ELY            DRIZZLE   48  48 100 NW7       29.78R
HIBBING        CLOUDY    47  46  97 NW10      29.81R FOG
EVELETH        CLOUDY    49  48  97 NW10      29.81R
DULUTH HARBOR  LGT RAIN  46  46 100 SW8       29.80R
TWO HARBORS    CLOUDY    48  45  87 W6        29.77R
SILVER BAY     CLOUDY    48  46  93 CALM      29.76R FOG
GRAND MARAIS     N/A     39  39 100 E3        29.76R
G MARAIS ARPRT DRIZZLE   46  45  93 CALM      29.74R
$$
MNZ029>031-032-039>041-046>048-054>057-064-231400-
   West Central Minnesota

CITY           SKY/WX    TMP DP  RH WIND       PRES   REMARKS
FERGUS FALLS   CLOUDY    46  46 100 NW15      29.93R
WHEATON        CLOUDY    48  43  81 W10       30.02R
MORRIS         CLOUDY    48  46  93 NW13      29.93R
ALEXANDRIA     CLOUDY    50  44  80 W10       29.95R
ELBOW LAKE     CLOUDY    46  46  99 NW10      29.96R FOG
GLENWOOD       LGT RAIN  46  46 100 W9        29.96R
APPLETON       CLOUDY    50  45  81 W9        29.99R
BENSON         CLOUDY    48  46  93 NW10      29.99R
ORTONVILLE     CLOUDY    48  43  81 NW12      30.01R
MADISON        CLOUDY    52  48  87 NW7       30.01R
WILLMAR        CLOUDY    48  46  93 W15       30.01R
$$
MNZ033>034-036-042>043-049>051-058-059-231400-
   Central Minnesota

CITY           SKY/WX    TMP DP  RH WIND       PRES   REMARKS
ST CLOUD       CLOUDY    50  44  80 W14G24    29.92R
SAUK CENTRE    CLOUDY    48  45  89 W14G20    29.94R
PAYNESVILLE    CLOUDY    49  46  92 W12       29.96R
AITKIN         CLOUDY    46  45  93 W6G17     29.86R FOG
PINE RIVER     CLOUDY    46  45  93 W5        29.92R
BRAINERD       CLOUDY    51  45  79 W13       29.89R
STAPLES        CLOUDY    48  46  93 NW9       29.90S
LONG PRAIRIE   CLOUDY    46  45  93 W10       29.93R
LITTLE FALLS   CLOUDY    50  46  87 W12G20    29.91R
LITCHFIELD     LGT RAIN  50  50 100 W10G16    29.97R
BUFFALO        CLOUDY    51  45  79 MISG      29.95R
MAPLE LAKE     CLOUDY    51  47  84 W5G17     29.95R
HUTCHINSON     CLOUDY    51  47  85 W18G25    29.98R
$$
MNZ037-044-045-052-053-231400-
   East Central Minnesota

CITY           SKY/WX    TMP DP  RH WIND       PRES   REMARKS
PRINCETON      CLOUDY    52  46  82 W10G18    29.91R
MORA           CLOUDY    50  45  81 W14G20    29.89R
CAMBRIDGE      CLOUDY    54  43  66 W12G17    29.90R
RUSH CITY      CLOUDY    51  47  88 W8        29.88R
MOOSE LAKE     CLOUDY    50  46  87 NW7G17    29.82R
HINCKLEY       CLOUDY    52  50  93 W12G20    29.86R
CLOQUET        DRIZZLE   50  48  93 W10G18    29.81R
MCGREGOR       CLOUDY    48  46  93 W8G17     29.86R
$$
MNZ071>073-080-081-089-090-097-098-231400-
   Southwest Minnesota

CITY           SKY/WX    TMP DP  RH WIND       PRES   REMARKS
MONTEVIDEO     CLOUDY    50  43  76 NW10      30.00R
GRANITE FALLS  CLOUDY    52  47  83 W13       30.01S
CANBY          CLOUDY    51  46  84 NW10      30.02R
MARSHALL       PTSUNNY   52  46  80 W12       30.01S
REDWOOD FALLS  CLOUDY    51  46  83 W8        29.99R
OLIVIA         CLOUDY    48  45  87 NW10G18   29.99R
PIPESTONE      CLOUDY    48  46  93 NW9       30.02R
WINDOM         PTSUNNY   52  46  82 W14       30.00S
WORTHINGTON    CLOUDY    51  47  86 W13       30.03S
JACKSON        CLOUDY    50  46  87 W14G22    30.02S
TRACY          SUNNY     52  46  82 W8        30.00S
SLAYTON        PTSUNNY   50  45  83 W13       30.02S
$$
MNZ065>067-074>077-082>085-091>093-231400-
   South Central Minnesota

CITY           SKY/WX    TMP DP  RH WIND       PRES   REMARKS
MANKATO        CLOUDY    54  46  76 W18       29.98R
NEW ULM        CLOUDY    52  45  76 NW15      29.99R
FAIRMONT       CLOUDY    53  47  79 NW16      30.01R
GLENCOE        CLOUDY    52  47  83 W14       29.96R
WASECA         CLOUDY    52  46  82 W15G21    30.00R
ALBERT LEA     CLOUDY    54  48  82 W12G18    29.99R
$$
MNZ078>079-086>088-094>096-231400-
   Southeast Minnesota

CITY           SKY/WX    TMP DP  RH WIND       PRES   REMARKS
ROCHESTER      CLOUDY    52  47  83 W20G32    29.96R
RED WING       CLOUDY    55  41  58 W18G26    29.92R
STANTON        PTSUNNY   54  48  82 W15G21    29.95R
DODGE CENTER   PTSUNNY   52  46  82 W17G24    29.97R
WINONA         PTSUNNY   55  46  71 W8G17     29.93R
AUSTIN         FAIR      55  45  67 W13       29.98R
PRESTON        FAIR      52  47  82 W16       29.97R
$$
ABBREVIATIONS USED IN REMARKS
   TC - TEMPERATURES IN CELSIUS
  WCI - WIND CHILL INDEX
   HX - HEAT INDEX
  VSB - VISIBILITY
$$



USA.gov is the U.S. government's official web portal to all federal, state and local government web resources and services.